Bloomington, IL

9:07 AM CDT on August 26, 2016 (GMT -0500)
Central Ill Regional

Weather History for KBMI - March, 2013

Change the Weather History Date:

Friday, March 8, 2013

  Actual Average Record
Temperature  
Mean Temperature 32 °F -  
Max Temperature 41 °F 55 °F 72 °F (2016)
Min Temperature 22 °F 33 °F 11 °F (2008)
Degree Days  
Heating Degree Days 34    
Moisture  
Dew Point 28 °F    
Average Humidity 84    
Maximum Humidity 93    
Minimum Humidity 70    
Precipitation  
Precipitation 0.00 in - - ()
Sea Level Pressure  
Sea Level Pressure 30.44 in    
Wind  
Wind Speed 8 mph (SE)    
Max Wind Speed 15 mph    
Max Gust Speed -    
Visibility 9 miles    
Events      
Averages and records for this station are not official NWS values.
T = Trace of Precipitation, MM = Missing Value Source: NWS Daily Summary

Daily Weather History Graph

Daily Weather History Graph

Search for Another Location

Airport or City:

Trip Planner

Search our weather history database for the weather conditions in past years. The results will help you decide how hot, cold, wet, or windy it might be!

Date:

Astronomy

Mar. 08, 2013 Rise Set
Actual Time 6:18 AM CST 5:55 PM CST
Civil Twilight 5:50 AM CST 6:22 PM CST
Nautical Twilight 5:19 AM CST 6:54 PM CST
Astronomical Twilight 4:47 AM CST 7:25 PM CST
Moon 4:02 AM CST (3/8) 2:49 PM CST (3/8)
Length of Visible Light 12h 31m
Length of Day
11h 37m
Waning Crescent, 11% of the Moon is Illuminated
Mar 8
Waning Crescent
Mar 11
New
Mar 19
First Quarter
Mar 27
Full
Apr 2
Last Quarter

Hourly Weather History & Observations

Time (CST) Temp. Windchill Dew Point Humidity Pressure Visibility Wind Dir Wind Speed Gust Speed Precip Events Conditions
12:56 AM 25.2 °F 20.9 °F 23.0 °F 91% 30.48 in 9.0 mi SE 3.5 mph - N/A   Clear
1:56 AM 24.1 °F 16.0 °F 22.1 °F 92% 30.47 in 8.0 mi ESE 6.9 mph - N/A   Clear
2:56 AM 24.1 °F 16.0 °F 22.1 °F 92% 30.47 in 9.0 mi ESE 6.9 mph - N/A   Clear
3:56 AM 24.1 °F 18.2 °F 22.1 °F 92% 30.48 in 8.0 mi ESE 4.6 mph - N/A   Clear
4:56 AM 23.0 °F 15.8 °F 20.1 °F 89% 30.48 in 8.0 mi ESE 5.8 mph - N/A   Clear
5:56 AM 22.1 °F 13.7 °F 20.1 °F 92% 30.50 in 8.0 mi ESE 6.9 mph - N/A   Clear
6:56 AM 24.1 °F 15.2 °F 21.0 °F 88% 30.50 in 7.0 mi SE 8.1 mph - N/A   Clear
7:56 AM 29.1 °F 22.1 °F 24.1 °F 81% 30.50 in 9.0 mi SE 6.9 mph - N/A   Clear
8:56 AM 32.0 °F 24.2 °F 26.1 °F 79% 30.51 in 10.0 mi SE 9.2 mph - N/A   Clear
9:56 AM 34.9 °F 26.2 °F 28.0 °F 76% 30.51 in 10.0 mi SE 12.7 mph - N/A   Clear
10:56 AM 36.9 °F 27.8 °F 29.1 °F 74% 30.50 in 10.0 mi SSE 15.0 mph - N/A   Clear
11:56 AM 37.9 °F 29.6 °F 30.0 °F 73% 30.48 in 10.0 mi SSE 13.8 mph - N/A   Clear
12:56 PM 39.9 °F 31.8 °F 32.0 °F 73% 30.44 in 10.0 mi SSE 15.0 mph - N/A   Clear
1:56 PM 41.0 °F 34.7 °F 32.9 °F 73% 30.41 in 10.0 mi SE 10.4 mph - N/A   Clear
2:56 PM 41.0 °F 33.9 °F 32.9 °F 73% 30.40 in 10.0 mi SE 12.7 mph - N/A   Clear
3:56 PM 41.9 °F 35.4 °F 32.9 °F 70% 30.39 in 10.0 mi SE 11.5 mph - N/A   Clear
4:56 PM 38.8 °F 33.2 °F 34.0 °F 83% 30.40 in 10.0 mi ESE 8.1 mph - N/A   Clear
5:56 PM 36.0 °F 31.1 °F 32.0 °F 86% 30.41 in 9.0 mi SE 5.8 mph - N/A   Clear
6:56 PM 32.9 °F 25.9 °F 31.1 °F 93% 30.40 in 10.0 mi ESE 8.1 mph - N/A   Clear
7:56 PM 32.9 °F 25.9 °F 31.1 °F 93% 30.38 in 9.0 mi East 8.1 mph - N/A   Clear
8:56 PM 32.9 °F 25.3 °F 31.1 °F 93% 30.36 in 9.0 mi ESE 9.2 mph - N/A   Clear
9:56 PM 34.9 °F 26.2 °F 30.0 °F 82% 30.35 in 10.0 mi SE 12.7 mph - N/A   Clear
10:56 PM 34.9 °F 25.7 °F 30.0 °F 82% 30.32 in 10.0 mi SE 13.8 mph - N/A   Clear
11:56 PM 34.0 °F 25.5 °F 30.0 °F 85% 30.31 in 9.0 mi SE 11.5 mph - N/A   Clear